Location: Milton Keynes
(52.0316°N, 0.7531°W)
Time: 13:01:03
(UTC+00:00)

Envisat - Pass Details

Date: 01 February 2019
Orbit: 764 x 766 km, 98.2° (Epoch: 16 February)

Event Time Altitude Azimuth Distance (km) Brightness Sun altitude
Rises 18:57:17 0° 177° (S) 3,221 6.2 -19.5°
Reaches altitude 10° 18:59:38 10° 181° (S) 2,299 5.5 -19.9°
Maximum altitude 19:04:36 55° 260° (W) 917 3.7 -20.7°
Drops below altitude 10° 19:09:37 10° 338° (NNW) 2,315 5.7 -21.4°
Sets 19:11:59 0° 343° (NNW) 3,246 6.5 -21.8°
